Simultaneous Nadir Overpasses (SNOs) Predictions

Prediction of SNOs between NOAA-19 and TERRA Satellite Orbit:

Table of predicted SNOs for the next 14.0 days since TLE Epoch: 7/16/2022
Index Date (NOAA-19) Time (NOAA-19) Lat,Lon (NOAA-19) SZA (NOAA-19 ) Date (TERRA) Time (TERRA) Lat,Lon (TERRA) SZA (TERRA ) Distance(km) Time Diff (sec)
1 07/18/2022 01:43:37 -80.82, 9.93 118.58 07/18/2022 01:44:23 -80.82, 9.97 118.55 0.87 46
2 07/18/2022 02:34:37 80.81, 177.64 61.47 07/18/2022 02:33:49 80.82, 177.66 61.47 2.03 48
3 07/20/2022 08:07:31 -80.82, -85.91 118.16 07/20/2022 08:07:28 -80.80, -86.04 118.18 2.85 3
4 07/22/2022 13:40:26 80.82, 10.65 62.26 07/22/2022 13:41:05 80.81, 10.61 62.26 1.59 39
5 07/22/2022 14:31:25 -80.82, 178.21 117.71 07/22/2022 14:30:32 -80.80, 178.21 117.74 1.14 53
6 07/24/2022 20:04:19 80.82, -85.15 62.74 07/24/2022 20:04:09 80.80, -85.22 62.72 2.20 10
7 07/27/2022 01:37:13 -80.82, 11.49 116.79 07/27/2022 01:37:45 -80.83, 11.60 116.76 2.03 32
8 07/27/2022 02:28:10 80.81, 179.38 63.28 07/27/2022 02:27:11 80.82, 179.20 63.24 3.30 59



Historial Predications of SNOs between NOAA-19 and TERRA
